This demonstration page uses our WeatherBlox Daily Observations layout. Learn more.

40.92945, -100.16068

Hourly Observations for June 10, 2015

Temp ( °F °C ) Dew Point ( °F °C ) Humidity (%) Winds ( mph kmh ) Pressure ( in mb ) Visibility ( mi km ) Precip ( " mm )
12:15 am 00:15 Clear 71 21.4 62 16.6 74 74 Calm 29.74 1007 10 16.0934 N/A
12:35 am 00:35 Clear 70 20.9 63 17 78 78 Calm 29.74 1007 7 11.26538 N/A
12:55 am 00:55 Hazy 68 19.9 63 17.1 84 84 Calm 29.74 1007 5 8.0467 N/A
1:15 am 01:15 Clear 67 19.6 63 17 85 85 Calm 29.74 1007 10 16.0934 N/A
1:35 am 01:35 Clear 67 19.7 63 17.3 86 86 Calm 29.74 1007 10 16.0934 N/A
1:55 am 01:55 Clear 66 18.9 62 16.4 86 86 Calm 29.74 1007 10 16.0934 N/A
2:15 am 02:15 Clear 65 18.4 61 16.1 87 87 Calm 29.77 1008 7 11.26538 N/A
2:35 am 02:35 Clear 65 18.3 61 16.3 88 88 Calm 29.77 1008 7 11.26538 N/A
2:55 am 02:55 Clear 65 18.2 62 16.5 90 90 Calm 29.71 1006 7 11.26538 N/A
3:15 am 03:15 Clear 65 18.5 62 16.6 89 89 Calm 29.74 1007 10 16.0934 N/A
3:35 am 03:35 Clear 65 18.1 61 16 88 88 Calm 29.71 1006 10 16.0934 N/A
3:55 am 03:55 Clear 64 17.9 61 15.9 88 88 Calm 29.71 1006 10 16.0934 N/A
4:15 am 04:15 Clear 64 17.6 60 15.8 89 89 Calm 29.71 1006 10 16.0934 N/A
4:35 am 04:35 Clear 63 17.3 60 15.5 89 89 Calm 29.74 1007 10 16.0934 N/A
4:55 am 04:55 Clear 62 16.5 59 15 91 91 Calm 29.74 1007 10 16.0934 N/A
5:15 am 05:15 Clear 63 17 60 15.6 92 92 Calm 29.74 1007 10 16.0934 N/A
5:35 am 05:35 Clear 62 16.5 59 15 91 91 Calm 29.74 1007 10 16.0934 N/A
5:55 am 05:55 Clear 62 16.9 59 15 89 89 Calm 29.77 1008 10 16.0934 N/A
6:15 am 06:15 Sunny 62 16.7 60 15.3 92 92 Calm 29.74 1007 10 16.0934 N/A
6:35 am 06:35 Sunny 62 16.5 59 15 91 91 Calm 29.77 1008 10 16.0934 N/A
6:55 am 06:55 Sunny 62 16.9 59 14.9 88 88 Calm 29.77 1008 10 16.0934 N/A
7:15 am 07:15 Sunny 64 18 62 16.6 92 92 Calm 29.77 1008 7 11.26538 N/A
7:35 am 07:35 Sunny 67 19.5 64 17.7 89 89 Calm 29.74 1007 10 16.0934 N/A
7:55 am 07:55 Sunny 70 20.9 65 18.2 85 85 Calm 29.74 1007 10 16.0934 N/A
8:15 am 08:15 Sunny 73 23 67 19.6 81 81 Calm 29.71 1006 10 16.0934 N/A
8:35 am 08:35 Sunny 76 24.3 66 19.1 73 73 Calm 29.71 1006 10 16.0934 N/A
8:55 am 08:55 Sunny 79 26 66 19 65 65 Calm 29.68 1005 7 11.26538 N/A
9:15 am 09:15 Sunny 81 27 65 18.5 60 60 Calm 29.68 1005 10 16.0934 N/A
9:35 am 09:35 Sunny 82 27.9 66 19.1 59 59 Calm 29.68 1005 10 16.0934 N/A
9:55 am 09:55 Sunny 84 28.8 66 19 55 55 Calm 29.62 1003 10 16.0934 N/A
10:15 am 10:15 Sunny 86 29.8 64 17.5 48 48 Calm 29.62 1003 10 16.0934 N/A
10:35 am 10:35 Sunny 86 30.2 63 17 45 45 Calm 29.62 1003 10 16.0934 N/A
10:55 am 10:55 Sunny 89 31.4 65 18.1 45 45 E 3 6 29.62 1003 10 16.0934 N/A
11:15 am 11:15 Sunny 89 31.4 66 19.1 48 48 ESE 3 6 29.62 1003 10 16.0934 N/A
11:35 am 11:35 Sunny 89 31.4 66 18.8 47 47 SSE 6 9 29.62 1003 10 16.0934 N/A
11:55 am 11:55 Sunny 88 31.3 66 18.9 48 48 S 12 19 29.59 1002 10 16.0934 N/A
12:15 pm 12:15 Sunny 89 31.4 64 17.9 45 45 S 12 19 29.59 1002 10 16.0934 N/A
12:35 pm 12:35 Sunny 87 30.8 63 17 44 44 S 12 19 29.59 1002 10 16.0934 N/A
12:55 pm 12:55 Sunny 90 32 60 15.7 37 37 SSW 17 28 29.56 1001 10 16.0934 N/A
1:15 pm 13:15 Sunny 91 32.5 63 17.1 40 40 S 15 24 29.56 1001 10 16.0934 N/A
1:35 pm 13:35 Sunny 90 32 60 15.3 36 36 S 14 22 29.56 1001 10 16.0934 N/A
1:55 pm 13:55 Sunny 91 32.5 62 16.4 38 38 S 13 20 29.56 1001 10 16.0934 N/A
2:15 pm 14:15 Sunny 90 32.1 63 17.1 41 41 SSE 12 19 29.53 1000 10 16.0934 N/A
2:35 pm 14:35 Sunny 91 32.8 63 17.2 39 39 SE 14 22 29.53 1000 10 16.0934 N/A
2:55 pm 14:55 Partly Cloudy with Nearby Thunderstorms 88 31.2 63 17.4 44 44 SSE 14 22 29.56 1001 10 16.0934 N/A
3:15 pm 15:15 Partly Cloudy with Nearby Thunderstorms 87 30.5 64 17.9 47 47 SSE 12 19 29.56 1001 10 16.0934 N/A
3:35 pm 15:35 Partly Cloudy 85 29.7 64 17.7 48 48 SSE 10 17 29.53 1000 10 16.0934 N/A
3:55 pm 15:55 Sunny 85 29.5 63 17.3 48 48 SE 9 15 29.53 1000 10 16.0934 N/A
4:15 pm 16:15 Sunny with Nearby Thunderstorms 84 29.1 63 17.4 49 49 ESE 10 17 29.53 1000 10 16.0934 N/A
4:35 pm 16:35 Partly Cloudy with Thunderstorms 84 29 63 17.2 49 49 NW 16 26 29.56 1001 10 16.0934 N/A
4:55 pm 16:55 Mostly Cloudy with Nearby Thunderstorms 71 21.7 65 18.3 81 81 NW 18 30 29.59 1002 7 11.26538 0.01 0.254
5:15 pm 17:15 Cloudy with Heavy Thunderstorms 68 20.1 64 18 88 88 NW 22 35 29.65 1004 4 6.43736 0.05 1.27
5:35 pm 17:35 Cloudy with Thunderstorms 67 19.7 65 18.1 91 91 NW 26 43 29.62 1003 3 4.82802 0.15 3.81
5:55 pm 17:55 Cloudy with Light Thunderstorms 73 22.5 67 19.6 84 84 SSE 10 17 29.59 1002 10 16.0934 0.24 6.096
6:15 pm 18:15 Partly Cloudy with Light Thunderstorms 70 21.1 64 17.7 81 81 NNE 8 13 29.56 1001 10 16.0934 N/A
6:35 pm 18:35 Mostly Cloudy with Heavy Thunderstorms 69 20.8 66 19 90 90 ESE 10 17 29.59 1002 1.75 2.816345 0.2 5.08
6:55 pm 18:55 Partly Cloudy with Thunderstorms 69 20.6 66 19.1 91 91 NE 16 26 29.59 1002 10 16.0934 0.2 5.08
7:15 pm 19:15 Partly Cloudy 68 20.2 64 18 87 87 NE 14 22 29.62 1003 10 16.0934 N/A
7:35 pm 19:35 Sunny 69 20.4 65 18.1 87 87 NE 15 24 29.56 1001 10 16.0934 N/A
7:55 pm 19:55 Partly Cloudy with Nearby Thunderstorms 68 20.2 65 18.2 88 88 S 24 39 29.68 1005 10 16.0934 0.01 0.254
8:15 pm 20:15 Cloudy 66 19 63 17.1 89 89 E 13 20 29.65 1004 1.5 2.41401 0.24 6.096
8:35 pm 20:35 Mostly Cloudy with Light Rain 66 18.7 63 17.2 91 91 SSW 5 7 29.68 1005 10 16.0934 0.25 6.35
8:55 pm 20:55 Partly Cloudy 66 19 64 17.6 92 92 ESE 14 22 29.65 1004 10 16.0934 0.25 6.35
9:15 pm 21:15 Mostly Cloudy with Light Rain 67 19.5 65 18.1 92 92 E 18 30 29.62 1003 10 16.0934 0.02 0.508
9:35 pm 21:35 Partly Cloudy 67 19.5 64 18 91 91 E 17 28 29.65 1004 10 16.0934 0.02 0.508
9:55 pm 21:55 Clear 67 19.5 64 17.8 90 90 E 16 26 29.65 1004 10 16.0934 0.02 0.508
10:15 pm 22:15 Mostly Cloudy with Light Rain 66 19 64 17.5 91 91 ENE 14 22 29.65 1004 10 16.0934 N/A
10:35 pm 22:35 Mostly Cloudy with Light Rain 66 18.7 63 17.3 92 92 NE 14 22 29.65 1004 10 16.0934 0.01 0.254
10:55 pm 22:55 Clear with Nearby Thunderstorms 66 18.7 63 17.3 92 92 NE 10 17 29.68 1005 10 16.0934 0.01 0.254
11:15 pm 23:15 Partly Cloudy with Light Rain 66 18.7 64 17.5 93 93 ENE 15 24 29.65 1004 10 16.0934 N/A
11:35 pm 23:35 Mostly Cloudy with Light Rain 65 18.5 64 17.5 94 94 E 17 28 29.62 1003 10 16.0934 N/A
11:55 pm 23:55 Cloudy 65 18.6 64 17.6 94 94 E 15 24 29.62 1003 10 16.0934 N/A

Powered by AerisWeather